Atlanta Fulton, GA

11:23 PM EDT on July 23, 2017 (GMT -0400)
Fulton County-Brown

Weather History for KFTY - June, 2013

Change the Weather History Date:

Monday, June 24, 2013

  Actual Average Record
Temperature  
Mean Temperature 78 °F 78 °F  
Max Temperature 86 °F 88 °F 96 °F (2007)
Min Temperature 69 °F 68 °F 60 °F (2001)
Cooling Degree Days 13 13  
Month to date cooling degree days 285 268  
Year to date cooling degree days 448 468  
Since 1 June cooling degree days 285 268  
Growing Degree Days 26 (Base 50)    
Moisture  
Dew Point 69 °F    
Average Humidity 76    
Maximum Humidity 97    
Minimum Humidity 55    
Precipitation  
Precipitation 0.01 in 0.15 in 2.21 in (2006)
Month to date precipitation 5.25 3.01  
Year to date precipitation 15.50 24.50  
Sea Level Pressure  
Sea Level Pressure 30.17 in    
Wind  
Wind Speed 4 mph (SW)    
Max Wind Speed 16 mph    
Max Gust Speed 22 mph    
Visibility 10 miles    
Events Rain    
T = Trace of Precipitation, MM = Missing Value Source: NWS Daily Summary

Daily Weather History Graph

Daily Weather History Graph

Search for Another Location

Airport or City:

Trip Planner

Search our weather history database for the weather conditions in past years. The results will help you decide how hot, cold, wet, or windy it might be!

Date:

Astronomy

Jun. 24, 2013 Rise Set
Actual Time 6:28 AM EDT 8:52 PM EDT
Civil Twilight 5:59 AM EDT 9:21 PM EDT
Nautical Twilight 5:23 AM EDT 9:57 PM EDT
Astronomical Twilight 4:44 AM EDT 10:36 PM EDT
Moon 10:00 PM EDT 7:50 AM EDT
Length of Visible Light 15h 22m
Length of Day
14h 23m
Full, 98% of the Moon is Illuminated
Jun 24
Full
Jun 30
Last Quarter
Jul 8
New
Jul 15
First Quarter
Jul 22
Full

Hourly Weather History & Observations

Time (EDT) Temp. Heat Index Dew Point Humidity Pressure Visibility Wind Dir Wind Speed Gust Speed Precip Events Conditions
12:53 AM 73.0 °F - 69.1 °F 87% 30.17 in 10.0 mi Calm Calm - N/A   Clear
1:53 AM 71.1 °F - 68.0 °F 90% 30.15 in 10.0 mi Calm Calm - N/A   Clear
2:53 AM 71.1 °F - 68.0 °F 90% 30.15 in 10.0 mi Calm Calm - N/A   Clear
3:53 AM 71.1 °F - 68.0 °F 90% 30.14 in 10.0 mi Calm Calm - N/A   Clear
4:34 AM 69.8 °F - 66.2 °F 88% 30.18 in 10.0 mi Calm Calm - N/A   Mostly Cloudy
4:53 AM 70.0 °F - 68.0 °F 93% 30.15 in 10.0 mi Calm Calm - N/A   Mostly Cloudy
5:53 AM 71.1 °F - 69.1 °F 93% 30.17 in 10.0 mi SSW 3.5 mph - N/A   Overcast
6:28 AM 71.6 °F - 69.8 °F 94% 30.20 in 10.0 mi SSW 3.5 mph - N/A   Partly Cloudy
6:35 AM 71.6 °F - 69.8 °F 94% 30.20 in 10.0 mi Calm Calm - N/A   Mostly Cloudy
6:53 AM 70.0 °F - 66.9 °F 90% 30.18 in 6.0 mi Calm Calm - N/A   Mostly Cloudy
7:21 AM 71.6 °F - 69.8 °F 94% 30.21 in 10.0 mi South 4.6 mph - N/A   Overcast
7:53 AM 72.0 °F - 69.1 °F 91% 30.19 in 10.0 mi SW 3.5 mph - N/A   Overcast
8:53 AM 73.0 °F - 69.1 °F 87% 30.21 in 10.0 mi Calm Calm - N/A   Overcast
9:22 AM 73.4 °F - 69.8 °F 88% 30.24 in 10.0 mi WSW 4.6 mph - N/A   Overcast
9:53 AM 75.9 °F - 70.0 °F 82% 30.22 in 10.0 mi West 8.1 mph - N/A   Mostly Cloudy
10:53 AM 78.1 °F - 70.0 °F 76% 30.22 in 10.0 mi SSW 5.8 mph - N/A   Mostly Cloudy
11:27 AM 78.8 °F - 69.8 °F 74% 30.24 in 10.0 mi WSW 5.8 mph - N/A   Overcast
11:53 AM 80.1 °F 82.9 °F 69.1 °F 69% 30.21 in 10.0 mi SW 8.1 mph - N/A   Mostly Cloudy
12:53 PM 82.9 °F 85.8 °F 68.0 °F 60% 30.20 in 10.0 mi South 9.2 mph - N/A   Mostly Cloudy
1:53 PM 84.9 °F 87.1 °F 66.0 °F 53% 30.17 in 10.0 mi South 8.1 mph - N/A   Scattered Clouds
2:53 PM 84.9 °F 87.1 °F 66.0 °F 53% 30.15 in 10.0 mi South 6.9 mph - N/A   Mostly Cloudy
3:53 PM 84.0 °F 87.0 °F 68.0 °F 58% 30.14 in 10.0 mi WNW 8.1 mph 18.4 mph N/A   Overcast
4:53 PM 80.1 °F 82.9 °F 69.1 °F 69% 30.14 in 10.0 mi NW 10.4 mph - N/A   Mostly Cloudy
5:53 PM 75.0 °F - 71.1 °F 87% 30.12 in 7.0 mi South 3.5 mph - 0.01 in Rain Light Rain
6:53 PM 75.0 °F - 71.1 °F 87% 30.12 in 10.0 mi SSW 3.5 mph - 0.00 in   Clear
7:53 PM 75.0 °F - 70.0 °F 84% 30.13 in 10.0 mi SW 3.5 mph - N/A   Clear
8:53 PM 75.0 °F - 70.0 °F 84% 30.15 in 10.0 mi Calm Calm - N/A   Clear
9:53 PM 73.9 °F - 71.1 °F 91% 30.14 in 10.0 mi Calm Calm - N/A   Clear
10:53 PM 73.0 °F - 71.1 °F 93% 30.13 in 10.0 mi SSW 3.5 mph - N/A   Clear
11:53 PM 73.0 °F - 70.0 °F 90% 30.14 in 10.0 mi South 3.5 mph - N/A   Clear